Location: Bidwell Hollow
(37.7387°N, 90.1707°W)
Time: 22:14:47
(UTC+00:00)

NOAA 15 - Visible Passes

Search period start: 09 February 2026 00:00
Search period end: 19 February 2026 00:00
Orbit: 794 x 809 km, 98.5° (Epoch: 9 February)

Date Brightness Start Highest point End Pass type
(mag) Time Alt. Az. Time Alt. Az. Time Alt. Az.
9 Feb 4.8 00:38:24 10° S 00:43:36 73° WSW 00:48:50 10° NNW visible
10 Feb 4.6 00:12:16 10° SSE 00:17:25 63° ENE 00:22:36 10° N visible
10 Feb 7.6 01:54:53 10° WSW 01:57:32 14° W 02:00:11 10° WNW visible
11 Feb 6.8 01:26:49 10° SSW 01:31:04 25° W 01:35:21 10° NW visible
11 Feb 7.8 12:03:56 10° NE 12:07:03 16° E 12:10:08 10° SE visible
12 Feb 5.7 00:59:44 10° S 01:04:42 45° W 01:09:44 10° NNW visible
13 Feb 4.7 00:33:13 10° S 00:38:27 82° WSW 00:43:43 10° NNW visible
14 Feb 4.7 00:07:11 10° SSE 00:12:17 57° ENE 00:17:25 10° N visible
14 Feb 7.5 01:49:15 10° SW 01:52:20 16° W 01:55:26 10° NW visible
15 Feb 6.6 01:21:27 10° SSW 01:25:53 28° W 01:30:23 10° NW visible
15 Feb 7.9 11:59:12 10° ENE 12:01:51 14° E 12:04:31 10° ESE visible
16 Feb 5.5 00:54:29 10° S 00:59:33 51° W 01:04:39 10° NNW visible
17 Feb 4.6 00:28:04 10° SSE 00:33:18 90° E 00:38:35 10° NNW visible
18 Feb 4.8 00:02:07 10° SSE 00:07:09 51° ENE 00:12:14 10° N visible
18 Feb 7.4 01:43:41 10° SW 01:47:08 18° W 01:50:36 10° NW visible
